Location: Augustenthal
(51.7167°N, 10.2833°E)
Time: 00:09:08
(UTC+00:00)

ISS - Pass Details

Date: 28 September 2021
Orbit: 417 x 423 km, 51.6° (Epoch: 19 October)

Event Time Altitude Azimuth Distance (km) Brightness Sun altitude
Rises 18:59:29 0° 282° (WNW) 2,367 1.7 -18.6°
Reaches altitude 10° 19:01:36 10° 278° (W) 1,502 0.2 -18.9°
Maximum altitude 19:04:55 57° 199° (SSW) 500 -3.5 -19.3°
Enters shadow 19:05:04 56° 186° (S) 504 -3.6 -19.4°
